Location: Castelnau
(43.6639°N, 0.8431°W)
Time: 21:58:54
(UTC+00:00)

Sich 1 - Pass Details

Date: 13 January 2026
Orbit: 571 x 598 km, 82.5° (Epoch: 10 February)

Event Time Altitude Azimuth Distance (km) Brightness Sun altitude
Rises 05:54:22 0° 199° (SSW) 2,806 6.4 -17.7°
Reaches altitude 10° 05:56:36 10° 204° (SSW) 1,906 5.5 -17.3°
Maximum altitude 06:00:43 51° 281° (WNW) 736 3.0 -16.6°
Drops below altitude 10° 06:04:49 10° 358° (N) 1,905 5.4 -15.9°
Sets 06:07:04 0° 4° (N) 2,805 6.3 -15.5°
